SPIRALE B

Last updated on May 20, 2019, 3:10 a.m. UTC

1 33752U 09008D   19138.89514181  .00005432  00000-0  92760-3 0  9997
2 33752   2.1251 355.6293 6929021  39.7925 354.5110  2.74482430 93904
UTC
Height (km)
Latitude
Longitude
Inclination
Orbital Period
UTC large
Height (km)
Speed (km/s)
/
Latitude / Longitude
Inclination (degrees)
Orbital Period (minutes)
Azimuth
Elevation
Range (km)
Doppler Factor
iOS Compass Heading
iOS Angle

Next 30 passes for location: Hong Kong

Rise time Rise Azimuth (degrees) Set time Set Azimuth (degrees) Duration Max altitude (degrees)

No matching passes for this satellites